{"data":{"norad_id":59447,"intl_designator":"2024-066F","name":"QPS-SAR-7 (TSUKUYOMI-II)","alt_names":[],"object_type":"PAYLOAD","status":"ACTIVE","operator":null,"country":"JPN","launch_date":"2024-04-07","launch_site_code":"AFETR","launch_vehicle":null,"mission":null,"orbit_class":"UNKNOWN","rcs_meters":null,"size_class":null,"mass_kg":null,"dimensions":null,"purposes":[],"wikipedia_slug":null,"has_3d_model":false,"image_url":null,"decayed_at":null,"tle_current":{"epoch":"2026-05-25T01:26:11.980896Z","epoch_age_seconds":73184,"freshness":"FRESH","line1":"1 59447U 24066F   26145.05986089  .00006179  00000+0  40486-3 0  9997","line2":"2 59447  45.6052   6.6828 0001919 214.9968 145.0791 15.08574059116731","mean_motion":15.08574059,"eccentricity":0.0001919,"inclination_deg":45.6052,"raan_deg":6.6828,"arg_perigee_deg":214.9968,"mean_anomaly_deg":145.0791,"bstar":0.00040486,"rev_number":11673,"period_min":95.454379015011,"perigee_km":539.22868636279,"apogee_km":541.88408088342,"semimajor_km":6918.6933836231,"source":"CELESTRAK","updated_at":"2026-05-25T13:38:01.425447Z"}}}